Total_Precipitation_Accumulation
0.22 0.34 0.85 1.15 1.18 1.08 1.01 0.91 0.84 0.83 0.77 0.75 0.77 0.77 0.70 0.69 0.68 0.67 0.72 0.75 0.82 0.97 1.12 1.17 1.22 1.26 1.19 0.98 0.77 0.59 0.53 0.51 0.46 0.43 0.41 0.47 0.55 0.59 0.51 0.51 0.53 0.62 0.88
0.24 0.37 0.78 1.15 1.26 1.20 1.10 1.01 0.87 0.81 0.77 0.81 0.83 0.87 0.85 0.78 0.77 0.76 0.81 0.89 1.03 1.18 1.22 1.19 1.15 1.17 1.08 0.89 0.71 0.53 0.41 0.32 0.24 0.18 0.16 0.23 0.42 0.56 0.52 0.49 0.53 0.76 0.87
0.27 0.40 0.71 1.10 1.28 1.27 1.19 1.09 0.98 0.92 0.85 0.90 0.97 1.01 1.01 0.98 0.95 0.92 0.98 1.01 1.10 1.25 1.18 1.16 1.07 1.04 0.96 0.80 0.64 0.53 0.39 0.30 0.21 0.15 0.17 0.28 0.46 0.67 0.60 0.56 0.68 0.83 0.85
0.32 0.45 0.70 1.07 1.33 1.37 1.31 1.21 1.12 1.12 1.06 1.03 1.10 1.15 1.14 1.17 1.14 1.09 1.13 1.12 1.09 1.16 1.07 0.99 0.84 0.77 0.69 0.62 0.56 0.49 0.38 0.30 0.21 0.18 0.24 0.34 0.48 0.85 0.84 0.80 0.88 0.87 0.86
0.47 0.60 0.87 1.19 1.41 1.52 1.43 1.39 1.33 1.30 1.28 1.24 1.21 1.25 1.29 1.28 1.28 1.20 1.14 1.12 1.06 1.08 0.96 0.85 0.71 0.58 0.53 0.49 0.48 0.44 0.33 0.25 0.20 0.20 0.27 0.39 0.59 1.10 0.98 0.90 0.88 0.83 0.82
0.63 0.77 1.07 1.36 1.54 1.62 1.53 1.48 1.47 1.47 1.50 1.47 1.36 1.32 1.35 1.37 1.28 1.16 1.09 1.03 0.92 0.91 0.88 0.77 0.65 0.55 0.48 0.48 0.45 0.40 0.33 0.23 0.19 0.21 0.28 0.39 0.57 1.02 0.91 0.82 0.81 0.84 0.85
0.86 1.00 1.26 1.61 1.84 1.86 1.75 1.68 1.64 1.62 1.63 1.66 1.57 1.46 1.49 1.53 1.45 1.21 1.07 0.96 0.83 0.80 0.77 0.72 0.61 0.55 0.50 0.47 0.47 0.37 0.28 0.22 0.21 0.25 0.29 0.41 0.65 1.00 0.97 0.89 0.87 0.86 0.91
1.09 1.25 1.51 1.87 2.03 2.12 2.02 1.92 1.88 1.84 1.76 1.74 1.75 1.70 1.64 1.66 1.59 1.35 1.09 0.97 0.90 0.86 0.79 0.75 0.68 0.59 0.52 0.45 0.41 0.34 0.27 0.20 0.21 0.23 0.27 0.36 0.66 0.97 1.00 0.92 0.87 0.84 0.87
1.43 1.62 1.78 2.02 2.18 2.39 2.24 2.04 2.04 2.02 1.90 1.85 1.85 1.82 1.71 1.67 1.57 1.38 1.14 1.04 1.01 0.97 0.89 0.81 0.75 0.67 0.59 0.49 0.42 0.33 0.27 0.21 0.18 0.22 0.22 0.33 0.64 0.95 1.00 0.97 0.94 0.89 0.85
1.81 2.00 2.10 2.24 2.35 2.55 2.51 2.24 2.06 1.96 1.90 1.92 1.84 1.65 1.44 1.45 1.48 1.39 1.10 1.04 1.04 1.00 0.99 0.91 0.78 0.71 0.62 0.50 0.40 0.33 0.29 0.28 0.22 0.22 0.26 0.36 0.64 0.94 0.98 1.00 1.02 0.96 0.91
2.26 2.36 2.43 2.44 2.45 2.57 2.66 2.46 2.36 2.18 2.05 1.97 1.86 1.59 1.47 1.55 1.48 1.35 1.09 0.94 1.02 1.00 1.06 1.10 0.97 0.81 0.65 0.55 0.42 0.31 0.29 0.32 0.29 0.29 0.31 0.46 0.69 0.90 0.95 0.95 0.96 0.94 0.85
2.37 2.48 2.63 2.60 2.60 2.69 2.72 2.66 2.65 2.45 2.26 2.09 1.86 1.72 1.66 1.59 1.57 1.40 1.29 1.06 1.08 1.09 1.09 1.14 1.03 0.91 0.71 0.54 0.44 0.36 0.33 0.33 0.35 0.36 0.37 0.53 0.79 0.92 0.90 0.84 0.82 0.86 0.86
2.51 2.62 2.76 2.75 2.82 2.85 2.83 2.71 2.64 2.50 2.47 2.33 2.11 1.87 1.79 1.74 1.68 1.65 1.46 1.29 1.24 1.16 1.17 1.06 0.96 0.86 0.72 0.60 0.52 0.41 0.37 0.38 0.38 0.40 0.44 0.54 0.79 0.91 0.94 0.89 0.83 0.81 0.90
2.74 2.89 2.93 2.93 3.03 3.06 2.99 2.80 2.59 2.36 2.32 2.32 2.18 2.12 1.98 1.85 1.73 1.61 1.44 1.28 1.23 1.13 1.10 1.01 0.91 0.81 0.70 0.64 0.63 0.55 0.45 0.39 0.36 0.41 0.45 0.49 0.64 0.87 0.98 0.97 0.96 0.93 0.98
3.00 3.09 3.19 3.16 3.12 3.11 3.18 3.07 2.72 2.39 2.14 2.16 2.19 2.21 2.12 1.88 1.70 1.63 1.48 1.42 1.30 1.18 1.14 1.08 0.97 0.88 0.80 0.75 0.70 0.63 0.57 0.49 0.42 0.45 0.46 0.46 0.50 0.74 1.02 1.07 1.08 1.11 1.16
3.20 3.36 3.52 3.44 3.33 3.14 3.07 3.13 2.93 2.62 2.32 2.21 2.15 2.14 2.27 2.12 1.89 1.82 1.62 1.57 1.49 1.39 1.31 1.24 1.14 1.11 1.01 0.93 0.83 0.73 0.68 0.62 0.58 0.59 0.57 0.52 0.49 0.61 0.88 1.13 1.34 1.42 1.45
3.31 3.56 3.70 3.74 3.61 3.32 3.12 3.17 3.06 2.86 2.65 2.42 2.09 2.05 2.19 2.28 2.21 2.10 1.83 1.69 1.62 1.61 1.62 1.55 1.42 1.33 1.24 1.11 0.98 0.93 0.81 0.71 0.65 0.64 0.61 0.56 0.51 0.54 0.70 0.97 1.29 1.44 1.54
3.40 3.61 3.74 3.81 3.82 3.59 3.29 3.23 3.23 3.03 2.86 2.68 2.39 2.18 2.16 2.27 2.37 2.38 2.05 1.79 1.67 1.69 1.68 1.63 1.55 1.43 1.25 1.18 1.13 1.05 0.93 0.83 0.76 0.71 0.65 0.59 0.53 0.49 0.53 0.63 0.88 1.18 1.39
3.23 3.50 3.81 3.84 3.80 3.74 3.59 3.50 3.45 3.37 3.17 2.97 2.63 2.35 2.32 2.37 2.48 2.58 2.25 1.95 1.85 1.85 1.78 1.74 1.66 1.60 1.40 1.24 1.19 1.19 1.09 0.96 0.88 0.83 0.73 0.63 0.53 0.47 0.45 0.45 0.52 0.72 1.04
3.04 3.38 3.61 3.94 3.96 4.04 4.05 3.90 3.78 3.72 3.55 3.28 2.91 2.57 2.43 2.40 2.50 2.72 2.53 2.25 2.13 2.05 1.95 1.82 1.72 1.73 1.68 1.56 1.41 1.33 1.24 1.09 1.00 0.91 0.81 0.72 0.61 0.52 0.49 0.46 0.47 0.52 0.67
2.80 3.16 3.33 3.59 3.88 4.02 4.00 3.77 3.58 3.47 3.59 3.55 3.21 2.90 2.81 2.63 2.51 2.65 2.67 2.55 2.35 2.20 2.06 1.95 1.87 1.83 1.85 1.88 1.83 1.66 1.51 1.32 1.12 0.99 0.91 0.84 0.76 0.68 0.64 0.60 0.59 0.59 0.61
2.51 2.76 3.09 3.22 3.57 3.70 3.61 3.61 3.52 3.51 3.57 3.63 3.53 3.28 3.13 2.98 2.75 2.63 2.63 2.63 2.54 2.39 2.26 2.20 2.13 2.08 1.98 1.95 1.93 1.92 1.86 1.79 1.43 1.10 1.02 0.98 0.91 0.86 0.82 0.77 0.72 0.70 0.71
2.23 2.56 2.72 2.89 3.17 3.50 3.62 3.84 3.97 3.97 3.78 3.62 3.52 3.49 3.36 3.30 3.12 2.81 2.68 2.69 2.66 2.55 2.40 2.35 2.31 2.32 2.34 2.25 2.05 2.16 2.06 1.79 1.52 1.28 1.09 1.02 0.98 0.96 0.92 0.88 0.83 0.81 0.81
1.86 2.31 2.66 2.88 3.08 3.30 3.70 3.82 3.76 3.60 3.36 3.14 3.21 3.31 3.39 3.38 3.35 3.11 2.94 2.90 2.79 2.65 2.55 2.57 2.53 2.52 2.56 2.56 2.43 2.20 2.02 1.75 1.65 1.50 1.24 1.09 1.05 0.99 0.97 0.96 0.92 0.85 0.84
1.62 2.03 2.45 2.72 3.07 3.34 3.50 3.64 3.76 3.54 3.26 3.18 3.18 3.20 3.17 3.18 3.25 3.25 3.12 3.15 3.03 2.87 2.74 2.73 2.74 2.74 2.71 2.67 2.55 2.41 2.31 2.05 1.77 1.68 1.49 1.26 1.23 1.13 1.00 0.95 0.94 0.95 0.96
1.52 1.75 2.17 2.46 2.65 2.98 3.32 3.41 3.50 3.49 3.42 3.32 3.14 3.07 3.08 3.08 3.11 3.18 3.21 3.17 3.12 3.08 2.96 2.86 2.81 2.79 2.75 2.67 2.61 2.46 2.39 2.31 2.08 1.96 1.77 1.50 1.46 1.37 1.22 1.13 1.07 1.02 1.03